{"data":{"norad_id":59422,"epoch":"2026-05-25T02:14:34.656288Z","epoch_age_seconds":81160,"freshness":"FRESH","line1":"1 59422U 24065B   26145.09345667  .00006161  00000+0  55684-4 0  9992","line2":"2 59422  53.1589  77.2068 0000680  59.7401 300.3685 15.69703149123539","mean_motion":15.69703149,"eccentricity":6.8e-5,"inclination_deg":53.1589,"raan_deg":77.2068,"arg_perigee_deg":59.7401,"mean_anomaly_deg":300.3685,"bstar":5.5684e-5,"rev_number":12353,"period_min":91.737090603237,"perigee_km":359.28817936249,"apogee_km":360.20453149883,"semimajor_km":6737.8833554307,"source":"CELESTRAK","updated_at":"2026-05-25T13:38:18.943953Z"}}